TimeEDT,TemperatureF,Dew PointF,Humidity,Sea Level PressureIn,VisibilityMPH,Wind Direction,Wind SpeedMPH,Gust SpeedMPH,PrecipitationIn,Events,Conditions,WindDirDegrees,DateUTC
12:56 AM,72.0,64.9,78,30.33,10.0,WSW,4.6,-,N/A,,Clear,250,2013-07-15 04:56:00
1:56 AM,72.0,64.9,78,30.32,10.0,WSW,5.8,-,N/A,,Mostly Cloudy,240,2013-07-15 05:56:00
2:56 AM,70.0,64.0,81,30.32,10.0,WSW,5.8,-,N/A,,Clear,250,2013-07-15 06:56:00
3:56 AM,70.0,64.0,81,30.33,10.0,WSW,4.6,-,N/A,,Clear,240,2013-07-15 07:56:00
4:56 AM,70.0,64.0,81,30.33,10.0,WSW,4.6,-,N/A,,Clear,250,2013-07-15 08:56:00
5:56 AM,69.1,64.9,87,30.34,10.0,West,5.8,-,N/A,,Clear,260,2013-07-15 09:56:00
6:56 AM,71.1,66.0,84,30.35,10.0,West,5.8,-,N/A,,Clear,270,2013-07-15 10:56:00
7:56 AM,75.0,66.9,76,30.35,10.0,WNW,5.8,-,N/A,,Mostly Cloudy,290,2013-07-15 11:56:00
8:56 AM,75.9,69.1,79,30.36,10.0,NW,4.6,-,N/A,,Overcast,310,2013-07-15 12:56:00
9:56 AM,77.0,69.1,76,30.36,10.0,WNW,3.5,-,N/A,,Overcast,300,2013-07-15 13:56:00
10:56 AM,79.0,69.1,72,30.35,10.0,NNW,4.6,-,N/A,,Mostly Cloudy,340,2013-07-15 14:56:00
11:12 AM,78.8,69.8,74,30.40,10.0,NNE,3.5,-,N/A,,Mostly Cloudy,30,2013-07-15 15:12:00
11:20 AM,80.6,69.8,70,30.40,10.0,NE,3.5,-,N/A,,Mostly Cloudy,40,2013-07-15 15:20:00
11:27 AM,80.6,68.0,65,30.40,10.0,Variable,4.6,-,N/A,,Mostly Cloudy,0,2013-07-15 15:27:00
11:38 AM,80.6,69.8,70,30.40,10.0,NW,4.6,-,N/A,,Mostly Cloudy,320,2013-07-15 15:38:00
11:56 AM,79.0,66.9,66,30.35,10.0,Variable,4.6,-,N/A,,Mostly Cloudy,0,2013-07-15 15:56:00
12:56 PM,81.0,68.0,65,30.35,10.0,North,3.5,-,N/A,,Overcast,360,2013-07-15 16:56:00
1:56 PM,84.9,69.1,59,30.32,10.0,Variable,5.8,-,N/A,,Scattered Clouds,0,2013-07-15 17:56:00
2:56 PM,84.0,68.0,58,30.32,10.0,NNW,8.1,-,N/A,,Scattered Clouds,340,2013-07-15 18:56:00
3:56 PM,86.0,68.0,55,30.31,10.0,NNW,8.1,-,N/A,,Partly Cloudy,340,2013-07-15 19:56:00
4:56 PM,84.9,66.9,55,30.30,10.0,NNW,11.5,-,N/A,,Scattered Clouds,340,2013-07-15 20:56:00
5:56 PM,84.9,66.9,55,30.30,10.0,NW,8.1,-,N/A,,Partly Cloudy,310,2013-07-15 21:56:00
6:56 PM,82.9,66.9,58,30.29,10.0,NW,8.1,-,N/A,,Clear,320,2013-07-15 22:56:00
7:56 PM,81.0,66.0,60,30.29,10.0,NNW,5.8,-,N/A,,Partly Cloudy,340,2013-07-15 23:56:00
8:56 PM,78.1,68.0,71,30.30,10.0,Calm,Calm,-,N/A,,Scattered Clouds,0,2013-07-16 00:56:00
9:17 PM,77.0,68.0,74,30.35,10.0,NNE,3.5,-,N/A,,Mostly Cloudy,20,2013-07-16 01:17:00
9:26 PM,77.0,68.0,74,30.35,10.0,Calm,Calm,-,N/A,,Partly Cloudy,0,2013-07-16 01:26:00
9:56 PM,75.9,68.0,76,30.32,10.0,Calm,Calm,-,N/A,,Partly Cloudy,0,2013-07-16 01:56:00
10:56 PM,73.9,68.0,82,30.32,10.0,Calm,Calm,-,N/A,,Partly Cloudy,0,2013-07-16 02:56:00
11:56 PM,72.0,68.0,87,30.32,10.0,Calm,Calm,-,N/A,,Clear,0,2013-07-16 03:56:00